{"data":{"norad_id":58143,"epoch":"2026-09-21T22:38:11.946048Z","epoch_age_seconds":111723,"freshness":"FRESH","line1":"1 58143U 23163C   26264.94319382  .00003457  00000+0  17376-3 0  9990","line2":"2 58143  34.9928 125.9919 0009943 346.8114  13.2338 15.16728913162019","mean_motion":15.16728913,"eccentricity":0.0009943,"inclination_deg":34.9928,"raan_deg":125.9919,"arg_perigee_deg":346.8114,"mean_anomaly_deg":13.2338,"bstar":0.00017376,"rev_number":16201,"period_min":94.94115841385,"perigee_km":508.88013801879,"apogee_km":522.58929131057,"semimajor_km":6893.8717146647,"source":"CELESTRAK","updated_at":"2026-09-22T09:00:26.500177Z"}}